Year,Month,Day,Hour,Minute,Value (Times are PST for temperature in C)
2016,04,26,00,00,7.80
2016,04,26,00,01,7.80
2016,04,26,00,02,7.80
2016,04,26,00,03,7.80
2016,04,26,00,04,7.80
2016,04,26,00,05,7.80
2016,04,26,00,06,7.80
2016,04,26,00,07,7.80
2016,04,26,00,08,7.70
2016,04,26,00,09,7.70
2016,04,26,00,10,7.70
2016,04,26,00,11,7.70
2016,04,26,00,12,7.70
2016,04,26,00,13,7.80
2016,04,26,00,14,7.70
2016,04,26,00,15,7.70
2016,04,26,00,16,7.80
2016,04,26,00,17,7.80
2016,04,26,00,18,7.80
2016,04,26,00,19,7.80
2016,04,26,00,20,7.80
2016,04,26,00,21,7.80
2016,04,26,00,22,7.80
2016,04,26,00,23,7.80
2016,04,26,00,24,7.80
2016,04,26,00,25,7.80
2016,04,26,00,26,7.80
2016,04,26,00,27,7.80
2016,04,26,00,28,7.80
2016,04,26,00,29,7.80
2016,04,26,00,30,7.80
2016,04,26,00,31,7.80
2016,04,26,00,32,7.80
2016,04,26,00,33,7.80
2016,04,26,00,34,7.80
2016,04,26,00,35,7.80
2016,04,26,00,36,7.80
2016,04,26,00,37,7.70
2016,04,26,00,38,7.70
2016,04,26,00,39,7.70
2016,04,26,00,40,7.70
2016,04,26,00,41,7.70
2016,04,26,00,42,7.70
2016,04,26,00,43,7.70
2016,04,26,00,44,7.70
2016,04,26,00,45,7.70
2016,04,26,00,46,7.70
2016,04,26,00,47,7.70
2016,04,26,00,48,7.70
2016,04,26,00,49,7.70
2016,04,26,00,50,7.70
2016,04,26,00,51,7.70
2016,04,26,00,52,7.70
2016,04,26,00,53,7.70
2016,04,26,00,54,7.70
2016,04,26,00,55,7.70
2016,04,26,00,56,7.70
2016,04,26,00,57,7.70
2016,04,26,00,58,7.70
2016,04,26,00,59,7.70
2016,04,26,01,00,7.70
2016,04,26,01,01,7.70
2016,04,26,01,02,7.60
2016,04,26,01,03,7.60
2016,04,26,01,04,7.60
2016,04,26,01,05,7.60
2016,04,26,01,06,7.60
2016,04,26,01,07,7.60
2016,04,26,01,08,7.60
2016,04,26,01,09,7.60
2016,04,26,01,10,7.60
2016,04,26,01,11,7.60
2016,04,26,01,12,7.60
2016,04,26,01,13,7.60
2016,04,26,01,14,7.60
2016,04,26,01,15,7.60
2016,04,26,01,16,7.60
2016,04,26,01,17,7.60
2016,04,26,01,18,7.50
2016,04,26,01,19,7.50
2016,04,26,01,20,7.50
2016,04,26,01,21,7.50
2016,04,26,01,22,7.60
2016,04,26,01,23,7.50
2016,04,26,01,24,7.50
2016,04,26,01,25,7.50
2016,04,26,01,26,7.50
2016,04,26,01,27,7.50
2016,04,26,01,28,7.50
2016,04,26,01,29,7.50
2016,04,26,01,30,7.50
2016,04,26,01,31,7.40
2016,04,26,01,32,7.40
2016,04,26,01,33,7.40
2016,04,26,01,34,7.50
2016,04,26,01,35,7.50
2016,04,26,01,36,7.50
2016,04,26,01,37,7.50
2016,04,26,01,38,7.50
2016,04,26,01,39,7.50
2016,04,26,01,40,7.50
2016,04,26,01,41,7.50
2016,04,26,01,42,7.50
2016,04,26,01,43,7.50
2016,04,26,01,44,7.50
2016,04,26,01,45,7.60
2016,04,26,01,46,7.60
2016,04,26,01,47,7.60
2016,04,26,01,48,7.60
2016,04,26,01,49,7.60
2016,04,26,01,50,7.60
2016,04,26,01,51,7.60
2016,04,26,01,52,7.70
2016,04,26,01,53,7.70
2016,04,26,01,54,7.70
2016,04,26,01,55,7.70
2016,04,26,01,56,7.70
2016,04,26,01,57,7.70
2016,04,26,01,58,7.70
2016,04,26,01,59,7.70
2016,04,26,02,00,7.70
2016,04,26,02,01,7.70
2016,04,26,02,02,7.70
2016,04,26,02,03,7.70
2016,04,26,02,04,7.70
2016,04,26,02,05,7.70
2016,04,26,02,06,7.70
2016,04,26,02,07,7.70
2016,04,26,02,08,7.70
2016,04,26,02,09,7.80
2016,04,26,02,10,7.80
2016,04,26,02,11,7.80
2016,04,26,02,12,7.80
2016,04,26,02,13,7.80
2016,04,26,02,14,7.80
2016,04,26,02,15,7.80
2016,04,26,02,16,7.80
2016,04,26,02,17,7.80
2016,04,26,02,18,7.80
2016,04,26,02,19,7.80
2016,04,26,02,20,7.80
2016,04,26,02,21,7.80
2016,04,26,02,22,7.80
2016,04,26,02,23,7.80
2016,04,26,02,24,7.80
2016,04,26,02,25,7.80
2016,04,26,02,26,7.80
2016,04,26,02,27,7.80
2016,04,26,02,28,7.80
2016,04,26,02,29,7.80
2016,04,26,02,30,7.80
2016,04,26,02,31,7.80
2016,04,26,02,32,7.80
2016,04,26,02,33,7.80
2016,04,26,02,34,7.80
2016,04,26,02,35,7.80
2016,04,26,02,36,7.80
2016,04,26,02,37,7.80
2016,04,26,02,38,7.80
2016,04,26,02,39,7.80
2016,04,26,02,40,7.80
2016,04,26,02,41,7.80
2016,04,26,02,42,7.80
2016,04,26,02,43,7.80
2016,04,26,02,44,7.80
2016,04,26,02,45,7.80
2016,04,26,02,46,7.80
2016,04,26,02,47,7.80
2016,04,26,02,48,7.80
2016,04,26,02,49,7.80
2016,04,26,02,50,7.80
2016,04,26,02,51,7.80
2016,04,26,02,52,7.70
2016,04,26,02,53,7.70
2016,04,26,02,54,7.70
2016,04,26,02,55,7.70
2016,04,26,02,56,7.60
2016,04,26,02,57,7.60
2016,04,26,02,58,7.60
2016,04,26,02,59,7.50
2016,04,26,03,00,7.50
2016,04,26,03,01,7.40
2016,04,26,03,02,7.40
2016,04,26,03,03,7.40
2016,04,26,03,04,7.30
2016,04,26,03,05,7.30
2016,04,26,03,06,7.20
2016,04,26,03,07,7.20
2016,04,26,03,08,7.10
2016,04,26,03,09,7.10
2016,04,26,03,10,7.00
2016,04,26,03,11,7.00
2016,04,26,03,12,6.90
2016,04,26,03,13,6.90
2016,04,26,03,14,6.80
2016,04,26,03,15,6.80
2016,04,26,03,16,6.70
2016,04,26,03,17,6.70
2016,04,26,03,18,6.70
2016,04,26,03,19,6.70
2016,04,26,03,20,6.70
2016,04,26,03,21,6.70
2016,04,26,03,22,6.70
2016,04,26,03,23,6.70
2016,04,26,03,24,6.70
2016,04,26,03,25,6.70
2016,04,26,03,26,6.70
2016,04,26,03,27,6.70
2016,04,26,03,28,6.70
2016,04,26,03,29,6.70
2016,04,26,03,30,6.70
2016,04,26,03,31,6.70
2016,04,26,03,32,6.60
2016,04,26,03,33,6.60
2016,04,26,03,34,6.60
2016,04,26,03,35,6.60
2016,04,26,03,36,6.60
2016,04,26,03,37,6.50
2016,04,26,03,38,6.50
2016,04,26,03,39,6.50
2016,04,26,03,40,6.50
2016,04,26,03,41,6.50
2016,04,26,03,42,6.40
2016,04,26,03,43,6.40
2016,04,26,03,44,6.40
2016,04,26,03,45,6.40
2016,04,26,03,46,6.40
2016,04,26,03,47,6.40
2016,04,26,03,48,6.30
2016,04,26,03,49,6.30
2016,04,26,03,50,6.30
2016,04,26,03,51,6.30
2016,04,26,03,52,6.30
2016,04,26,03,53,6.30
2016,04,26,03,54,6.30
2016,04,26,03,55,6.40
2016,04,26,03,56,6.40
2016,04,26,03,57,6.40
2016,04,26,03,58,6.50
2016,04,26,03,59,6.50
2016,04,26,04,00,6.60
2016,04,26,04,01,6.60
2016,04,26,04,02,6.60
2016,04,26,04,03,6.70
2016,04,26,04,04,6.70
2016,04,26,04,05,6.80
2016,04,26,04,06,6.80
2016,04,26,04,07,6.80
2016,04,26,04,08,6.80
2016,04,26,04,09,6.90
2016,04,26,04,10,6.90
2016,04,26,04,11,6.90
2016,04,26,04,12,7.00
2016,04,26,04,13,7.00
2016,04,26,04,14,7.00
2016,04,26,04,15,7.00
2016,04,26,04,16,7.00
2016,04,26,04,17,7.00
2016,04,26,04,18,7.00
2016,04,26,04,19,6.90
2016,04,26,04,20,6.90
2016,04,26,04,21,6.90
2016,04,26,04,22,6.90
2016,04,26,04,23,6.80
2016,04,26,04,24,6.80
2016,04,26,04,25,6.80
2016,04,26,04,26,6.80
2016,04,26,04,27,6.80
2016,04,26,04,28,6.70
2016,04,26,04,29,6.70
2016,04,26,04,30,6.70
2016,04,26,04,31,6.70
2016,04,26,04,32,6.60
2016,04,26,04,33,6.60
2016,04,26,04,34,6.50
2016,04,26,04,35,6.40
2016,04,26,04,36,6.40
2016,04,26,04,37,6.30
2016,04,26,04,38,6.20
2016,04,26,04,39,6.20
2016,04,26,04,40,6.10
2016,04,26,04,41,6.00
2016,04,26,04,42,6.00
2016,04,26,04,43,5.90
2016,04,26,04,44,5.80
2016,04,26,04,45,5.80
2016,04,26,04,46,5.70
2016,04,26,04,47,5.60
2016,04,26,04,48,5.60
2016,04,26,04,49,5.50
2016,04,26,04,50,5.40
2016,04,26,04,51,5.40
2016,04,26,04,52,5.30
2016,04,26,04,53,5.20
2016,04,26,04,54,5.20
2016,04,26,04,55,5.20
2016,04,26,04,56,5.10
2016,04,26,04,57,5.10
2016,04,26,04,58,5.00
2016,04,26,04,59,5.00
2016,04,26,05,00,4.90
2016,04,26,05,01,4.90
2016,04,26,05,02,4.80
2016,04,26,05,03,4.80
2016,04,26,05,04,4.80
2016,04,26,05,05,4.70
2016,04,26,05,06,4.70
2016,04,26,05,07,4.70
2016,04,26,05,08,4.60
2016,04,26,05,09,4.60
2016,04,26,05,10,4.60
2016,04,26,05,11,4.50
2016,04,26,05,12,4.50
2016,04,26,05,13,4.40
2016,04,26,05,14,4.40
2016,04,26,05,15,4.30
2016,04,26,05,16,4.30
2016,04,26,05,17,4.30
2016,04,26,05,18,4.20
2016,04,26,05,19,4.20
2016,04,26,05,20,4.20
2016,04,26,05,21,4.10
2016,04,26,05,22,4.10
2016,04,26,05,23,4.10
2016,04,26,05,24,4.00
2016,04,26,05,25,4.00
2016,04,26,05,26,3.90
2016,04,26,05,27,3.90
2016,04,26,05,28,3.90
2016,04,26,05,29,3.90
2016,04,26,05,30,3.80
2016,04,26,05,31,3.80
2016,04,26,05,32,3.70
2016,04,26,05,33,3.70
2016,04,26,05,34,3.70
2016,04,26,05,35,3.60
2016,04,26,05,36,3.60
2016,04,26,05,37,3.60
2016,04,26,05,38,3.50
2016,04,26,05,39,3.50
2016,04,26,05,40,3.50
2016,04,26,05,41,3.50
2016,04,26,05,42,3.40
2016,04,26,05,43,3.40
2016,04,26,05,44,3.40
2016,04,26,05,45,3.40
2016,04,26,05,46,3.40
2016,04,26,05,47,3.30
2016,04,26,05,48,3.30
2016,04,26,05,49,3.30
2016,04,26,05,50,3.30
2016,04,26,05,51,3.20
2016,04,26,05,52,3.20
2016,04,26,05,53,3.20
2016,04,26,05,54,3.20
2016,04,26,05,55,3.10
2016,04,26,05,56,3.10
2016,04,26,05,57,3.10
2016,04,26,05,58,3.10
2016,04,26,05,59,3.10
2016,04,26,06,00,3.10
2016,04,26,06,01,3.10
2016,04,26,06,02,3.10
2016,04,26,06,03,3.10
2016,04,26,06,04,3.00
2016,04,26,06,05,3.00
2016,04,26,06,06,3.00
2016,04,26,06,07,3.00
2016,04,26,06,08,2.90
2016,04,26,06,09,2.90
2016,04,26,06,10,2.90
2016,04,26,06,11,2.90
2016,04,26,06,12,2.90
2016,04,26,06,13,2.90
2016,04,26,06,14,2.90
2016,04,26,06,15,2.90
2016,04,26,06,16,2.80
2016,04,26,06,17,2.80
2016,04,26,06,18,2.80
2016,04,26,06,19,2.80
2016,04,26,06,20,2.80
2016,04,26,06,21,2.80
2016,04,26,06,22,2.80
2016,04,26,06,23,2.80
2016,04,26,06,24,2.80
2016,04,26,06,25,2.80
2016,04,26,06,26,2.70
2016,04,26,06,27,2.70
2016,04,26,06,28,2.70
2016,04,26,06,29,2.70
2016,04,26,06,30,2.70
2016,04,26,06,31,2.70
2016,04,26,06,32,2.70
2016,04,26,06,33,2.70
2016,04,26,06,34,2.70
2016,04,26,06,35,2.70
2016,04,26,06,36,2.70
2016,04,26,06,37,2.70
2016,04,26,06,38,2.70
2016,04,26,06,39,2.70
2016,04,26,06,40,2.70
2016,04,26,06,41,2.70
2016,04,26,06,42,2.70
2016,04,26,06,43,2.70
2016,04,26,06,44,2.70
2016,04,26,06,45,2.70
2016,04,26,06,46,2.80
2016,04,26,06,47,2.80
2016,04,26,06,48,2.80
2016,04,26,06,49,2.80
2016,04,26,06,50,2.80
2016,04,26,06,51,2.80
2016,04,26,06,52,2.80
2016,04,26,06,53,2.90
2016,04,26,06,54,2.90
2016,04,26,06,55,2.90
2016,04,26,06,56,2.90
2016,04,26,06,57,2.90
2016,04,26,06,58,3.00
2016,04,26,06,59,3.00
2016,04,26,07,00,3.00
2016,04,26,07,01,3.00
2016,04,26,07,02,3.10
2016,04,26,07,03,3.10
2016,04,26,07,04,3.10
2016,04,26,07,05,3.10
2016,04,26,07,06,3.20
2016,04,26,07,07,3.20
2016,04,26,07,08,3.20
2016,04,26,07,09,3.20
2016,04,26,07,10,3.30
2016,04,26,07,11,3.30
2016,04,26,07,12,3.30
2016,04,26,07,13,3.30
2016,04,26,07,14,3.30
2016,04,26,07,15,3.30
2016,04,26,07,16,3.40
2016,04,26,07,17,3.40
2016,04,26,07,18,3.40
2016,04,26,07,19,3.50
2016,04,26,07,20,3.50
2016,04,26,07,21,3.60
2016,04,26,07,22,3.60
2016,04,26,07,23,3.60
2016,04,26,07,24,3.70
2016,04,26,07,25,3.70
2016,04,26,07,26,3.70
2016,04,26,07,27,3.70
2016,04,26,07,28,3.80
2016,04,26,07,29,3.80
2016,04,26,07,30,3.80
2016,04,26,07,31,3.80
2016,04,26,07,32,3.80
2016,04,26,07,33,3.90
2016,04,26,07,34,3.90
2016,04,26,07,35,3.90
2016,04,26,07,36,4.00
2016,04,26,07,37,4.10
2016,04,26,07,38,4.10
2016,04,26,07,39,4.20
2016,04,26,07,40,4.30
2016,04,26,07,41,4.30
2016,04,26,07,42,4.40
2016,04,26,07,43,4.50
2016,04,26,07,44,4.60
2016,04,26,07,45,4.70
2016,04,26,07,46,4.80
2016,04,26,07,47,4.80
2016,04,26,07,48,4.90
2016,04,26,07,49,4.90
2016,04,26,07,50,5.00
2016,04,26,07,51,5.00
2016,04,26,07,52,5.10
2016,04,26,07,53,5.10
2016,04,26,07,54,5.20
2016,04,26,07,55,5.20
2016,04,26,07,56,5.30
2016,04,26,07,57,5.40
2016,04,26,07,58,5.40
2016,04,26,07,59,5.50
2016,04,26,08,00,5.60
2016,04,26,08,01,5.70
2016,04,26,08,02,5.80
2016,04,26,08,03,5.80
2016,04,26,08,04,5.90
2016,04,26,08,05,6.00
2016,04,26,08,06,6.10
2016,04,26,08,07,6.20
2016,04,26,08,08,6.30
2016,04,26,08,09,6.40
2016,04,26,08,10,6.40
2016,04,26,08,11,6.50
2016,04,26,08,12,6.60
2016,04,26,08,13,6.60
2016,04,26,08,14,6.70
2016,04,26,08,15,6.80
2016,04,26,08,16,6.80
2016,04,26,08,17,6.90
2016,04,26,08,18,7.00
2016,04,26,08,19,7.00
2016,04,26,08,20,7.10
2016,04,26,08,21,7.20
2016,04,26,08,22,7.30
2016,04,26,08,23,7.40
2016,04,26,08,24,7.50
2016,04,26,08,25,7.60
2016,04,26,08,26,7.70
2016,04,26,08,27,7.80
2016,04,26,08,28,7.90
2016,04,26,08,29,7.90
2016,04,26,08,30,8.00
2016,04,26,08,31,8.10
2016,04,26,08,32,8.10
2016,04,26,08,33,8.20
2016,04,26,08,34,8.20
2016,04,26,08,35,8.30
2016,04,26,08,36,8.30
2016,04,26,08,37,8.40
2016,04,26,08,38,8.50
2016,04,26,08,39,8.50
2016,04,26,08,40,8.60
2016,04,26,08,41,8.60
2016,04,26,08,42,8.70
2016,04,26,08,43,8.80
2016,04,26,08,44,8.80
2016,04,26,08,45,8.80
2016,04,26,08,46,8.90
2016,04,26,08,47,8.90
2016,04,26,08,48,9.00
2016,04,26,08,49,9.00
2016,04,26,08,50,9.00
2016,04,26,08,51,9.10
2016,04,26,08,52,9.10
2016,04,26,08,53,9.10
2016,04,26,08,54,9.20
2016,04,26,08,55,9.20
2016,04,26,08,56,9.20
2016,04,26,08,57,9.30
2016,04,26,08,58,9.30
2016,04,26,08,59,9.40
2016,04,26,09,00,9.40
2016,04,26,09,01,9.50
2016,04,26,09,02,9.50
2016,04,26,09,03,9.50
2016,04,26,09,04,9.60
2016,04,26,09,05,9.60
2016,04,26,09,06,9.60
2016,04,26,09,07,9.60
2016,04,26,09,08,9.70
2016,04,26,09,09,9.70
2016,04,26,09,10,9.70
2016,04,26,09,11,9.70
2016,04,26,09,12,9.80
2016,04,26,09,13,9.80
2016,04,26,09,14,9.80
2016,04,26,09,15,9.80
2016,04,26,09,16,9.80
2016,04,26,09,17,9.90
2016,04,26,09,18,9.90
2016,04,26,09,19,9.90
2016,04,26,09,20,10.00
2016,04,26,09,21,10.00
2016,04,26,09,22,10.10
2016,04,26,09,23,10.10
2016,04,26,09,24,10.20
2016,04,26,09,25,10.20
2016,04,26,09,26,10.30
2016,04,26,09,27,10.30
2016,04,26,09,28,10.40
2016,04,26,09,29,10.40
2016,04,26,09,30,10.40
2016,04,26,09,31,10.40
2016,04,26,09,32,10.40
2016,04,26,09,33,10.50
2016,04,26,09,34,10.40
2016,04,26,09,35,10.40
2016,04,26,09,36,10.50
2016,04,26,09,37,10.50
2016,04,26,09,38,10.60
2016,04,26,09,39,10.60
2016,04,26,09,40,10.60
2016,04,26,09,41,10.60
2016,04,26,09,42,10.70
2016,04,26,09,43,10.70
2016,04,26,09,44,10.70
2016,04,26,09,45,10.80
2016,04,26,09,46,10.80
2016,04,26,09,47,10.80
2016,04,26,09,48,10.80
2016,04,26,09,49,10.90
2016,04,26,09,50,10.90
2016,04,26,09,51,11.00
2016,04,26,09,52,11.10
2016,04,26,09,53,11.10
2016,04,26,09,54,11.10
2016,04,26,09,55,11.10
2016,04,26,09,56,11.20
2016,04,26,09,57,11.20
2016,04,26,09,58,11.30
2016,04,26,09,59,11.30
2016,04,26,10,00,11.30
2016,04,26,10,01,11.40
2016,04,26,10,02,11.40
2016,04,26,10,03,11.40
2016,04,26,10,04,11.40
2016,04,26,10,05,11.40
2016,04,26,10,06,11.40
2016,04,26,10,07,11.50
2016,04,26,10,08,11.50
2016,04,26,10,09,11.50
2016,04,26,10,10,11.40
2016,04,26,10,11,11.40
2016,04,26,10,12,11.40
2016,04,26,10,13,11.40
2016,04,26,10,14,11.40
2016,04,26,10,15,11.40
2016,04,26,10,16,11.40
2016,04,26,10,17,11.50
2016,04,26,10,18,11.50
2016,04,26,10,19,11.50
2016,04,26,10,20,11.50
2016,04,26,10,21,11.50
2016,04,26,10,22,11.60
2016,04,26,10,23,11.60
2016,04,26,10,24,11.70
2016,04,26,10,25,11.80
2016,04,26,10,26,11.90
2016,04,26,10,27,11.90
2016,04,26,10,28,11.90
2016,04,26,10,29,11.90
2016,04,26,10,30,11.90
2016,04,26,10,31,11.90
2016,04,26,10,32,11.90
2016,04,26,10,33,11.90
2016,04,26,10,34,11.90
2016,04,26,10,35,11.90
2016,04,26,10,36,12.00
2016,04,26,10,37,12.00
2016,04,26,10,38,12.10
2016,04,26,10,39,12.10
2016,04,26,10,40,12.10
2016,04,26,10,41,12.10
2016,04,26,10,42,12.10
2016,04,26,10,43,12.10
2016,04,26,10,44,12.20
2016,04,26,10,45,12.20
2016,04,26,10,46,12.20
2016,04,26,10,47,12.30
2016,04,26,10,48,12.40
2016,04,26,10,49,12.50
2016,04,26,10,50,12.60
2016,04,26,10,51,12.60
2016,04,26,10,52,12.60
2016,04,26,10,53,12.70
2016,04,26,10,54,12.80
2016,04,26,10,55,12.80
2016,04,26,10,56,12.80
2016,04,26,10,57,12.80
2016,04,26,10,58,12.80
2016,04,26,10,59,12.70
2016,04,26,11,00,12.60
2016,04,26,11,01,12.60
2016,04,26,11,02,12.70
2016,04,26,11,03,12.70
2016,04,26,11,04,12.70
2016,04,26,11,05,12.70
2016,04,26,11,06,12.70
2016,04,26,11,07,12.60
2016,04,26,11,08,12.50
2016,04,26,11,09,12.50
2016,04,26,11,10,12.50
2016,04,26,11,11,12.50
2016,04,26,11,12,12.60
2016,04,26,11,13,12.60
2016,04,26,11,14,12.60
2016,04,26,11,15,12.60
2016,04,26,11,16,12.60
2016,04,26,11,17,12.60
2016,04,26,11,18,12.60
2016,04,26,11,19,12.60
2016,04,26,11,20,12.60
2016,04,26,11,21,12.60
2016,04,26,11,22,12.70
2016,04,26,11,23,12.70
2016,04,26,11,24,12.80
2016,04,26,11,25,12.80
2016,04,26,11,26,12.90
2016,04,26,11,27,12.90
2016,04,26,11,28,12.90
2016,04,26,11,29,12.80
2016,04,26,11,30,12.80
2016,04,26,11,31,12.70
2016,04,26,11,32,12.60
2016,04,26,11,33,12.60
2016,04,26,11,34,12.50
2016,04,26,11,35,12.50
2016,04,26,11,36,12.40
2016,04,26,11,37,12.40
2016,04,26,11,38,12.40
2016,04,26,11,39,12.40
2016,04,26,11,40,12.40
2016,04,26,11,41,12.40
2016,04,26,11,42,12.40
2016,04,26,11,43,12.40
2016,04,26,11,44,12.30
2016,04,26,11,45,12.30
2016,04,26,11,46,12.20
2016,04,26,11,47,12.20
2016,04,26,11,48,12.10
2016,04,26,11,49,12.10
2016,04,26,11,50,12.20
2016,04,26,11,51,12.30
2016,04,26,11,52,12.40
2016,04,26,11,53,12.50
2016,04,26,11,54,12.60
2016,04,26,11,55,12.60
2016,04,26,11,56,12.60
2016,04,26,11,57,12.60
2016,04,26,11,58,12.50
2016,04,26,11,59,12.40
2016,04,26,12,00,12.40
2016,04,26,12,01,12.30
2016,04,26,12,02,12.30
2016,04,26,12,03,12.30
2016,04,26,12,04,12.30
2016,04,26,12,05,12.30
2016,04,26,12,06,12.30
2016,04,26,12,07,12.30
2016,04,26,12,08,12.30
2016,04,26,12,09,12.30
2016,04,26,12,10,12.20
2016,04,26,12,11,12.20
2016,04,26,12,12,12.10
2016,04,26,12,13,12.00
2016,04,26,12,14,11.90
2016,04,26,12,15,11.80
2016,04,26,12,16,11.80
2016,04,26,12,17,11.70
2016,04,26,12,18,11.70
2016,04,26,12,19,11.70
2016,04,26,12,20,11.70
2016,04,26,12,21,11.70
2016,04,26,12,22,11.80
2016,04,26,12,23,11.90
2016,04,26,12,24,12.00
2016,04,26,12,25,12.10
2016,04,26,12,26,12.10
2016,04,26,12,27,12.10
2016,04,26,12,28,12.10
2016,04,26,12,29,12.10
2016,04,26,12,30,12.00
2016,04,26,12,31,11.90
2016,04,26,12,32,11.90
2016,04,26,12,33,11.80
2016,04,26,12,34,11.80
2016,04,26,12,35,11.90
2016,04,26,12,36,11.90
2016,04,26,12,37,11.90
2016,04,26,12,38,12.00
2016,04,26,12,39,12.00
2016,04,26,12,40,12.20
2016,04,26,12,41,12.30
2016,04,26,12,42,12.40
2016,04,26,12,43,12.40
2016,04,26,12,44,12.40
2016,04,26,12,45,12.30
2016,04,26,12,46,12.30
2016,04,26,12,47,12.30
2016,04,26,12,48,12.30
2016,04,26,12,49,12.30
2016,04,26,12,50,12.30
2016,04,26,12,51,12.40
2016,04,26,12,52,12.40
2016,04,26,12,53,12.30
2016,04,26,12,54,12.30
2016,04,26,12,55,12.20
2016,04,26,12,56,12.10
2016,04,26,12,57,12.00
2016,04,26,12,58,12.00
2016,04,26,12,59,11.90
2016,04,26,13,00,11.80
2016,04,26,13,01,11.80
2016,04,26,13,02,11.80
2016,04,26,13,03,11.80
2016,04,26,13,04,11.80
2016,04,26,13,05,11.70
2016,04,26,13,06,11.70
2016,04,26,13,07,11.60
2016,04,26,13,08,11.60
2016,04,26,13,09,11.60
2016,04,26,13,10,11.60
2016,04,26,13,11,11.60
2016,04,26,13,12,11.60
2016,04,26,13,13,11.60
2016,04,26,13,14,11.50
2016,04,26,13,15,11.50
2016,04,26,13,16,11.50
2016,04,26,13,17,11.50
2016,04,26,13,18,11.50
2016,04,26,13,19,11.60
2016,04,26,13,20,11.60
2016,04,26,13,21,11.60
2016,04,26,13,22,11.70
2016,04,26,13,23,11.70
2016,04,26,13,24,11.70
2016,04,26,13,25,11.70
2016,04,26,13,26,11.70
2016,04,26,13,27,11.70
2016,04,26,13,28,11.70
2016,04,26,13,29,11.80
2016,04,26,13,30,11.80
2016,04,26,13,31,11.90
2016,04,26,13,32,12.00
2016,04,26,13,33,12.00
2016,04,26,13,34,12.10
2016,04,26,13,35,12.10
2016,04,26,13,36,12.10
2016,04,26,13,37,12.10
2016,04,26,13,38,12.10
2016,04,26,13,39,12.10
2016,04,26,13,40,12.20
2016,04,26,13,41,12.20
2016,04,26,13,42,12.10
2016,04,26,13,43,12.10
2016,04,26,13,44,12.10
2016,04,26,13,45,12.10
2016,04,26,13,46,12.10
2016,04,26,13,47,12.10
2016,04,26,13,48,12.20
2016,04,26,13,49,12.20
2016,04,26,13,50,12.20
2016,04,26,13,51,12.20
2016,04,26,13,52,12.20
2016,04,26,13,53,12.10
2016,04,26,13,54,12.10
2016,04,26,13,55,12.10
2016,04,26,13,56,12.10
2016,04,26,13,57,12.10
2016,04,26,13,58,12.10
2016,04,26,13,59,12.10
2016,04,26,14,00,12.10
2016,04,26,14,01,12.10
2016,04,26,14,02,12.10
2016,04,26,14,03,12.10
2016,04,26,14,04,12.00
2016,04,26,14,05,12.10
2016,04,26,14,06,12.10
2016,04,26,14,07,12.10
2016,04,26,14,08,12.10
2016,04,26,14,09,12.20
2016,04,26,14,10,12.20
2016,04,26,14,11,12.30
2016,04,26,14,12,12.30
2016,04,26,14,13,12.40
2016,04,26,14,14,12.40
2016,04,26,14,15,12.40
2016,04,26,14,16,12.40
2016,04,26,14,17,12.30
2016,04,26,14,18,12.30
2016,04,26,14,19,12.30
2016,04,26,14,20,12.20
2016,04,26,14,21,12.20
2016,04,26,14,22,12.10
2016,04,26,14,23,12.10
2016,04,26,14,24,12.20
2016,04,26,14,25,12.20
2016,04,26,14,26,12.20
2016,04,26,14,27,12.30
2016,04,26,14,28,12.30
2016,04,26,14,29,12.20
2016,04,26,14,30,12.20
2016,04,26,14,31,12.10
2016,04,26,14,32,12.20
2016,04,26,14,33,12.20
2016,04,26,14,34,12.20
2016,04,26,14,35,12.30
2016,04,26,14,36,12.30
2016,04,26,14,37,12.20
2016,04,26,14,38,12.20
2016,04,26,14,39,12.10
2016,04,26,14,40,12.10
2016,04,26,14,41,12.00
2016,04,26,14,42,12.00
2016,04,26,14,43,12.00
2016,04,26,14,44,11.90
2016,04,26,14,45,12.00
2016,04,26,14,46,12.00
2016,04,26,14,47,12.00
2016,04,26,14,48,12.00
2016,04,26,14,49,12.10
2016,04,26,14,50,12.10
2016,04,26,14,51,12.10
2016,04,26,14,52,12.20
2016,04,26,14,53,12.30
2016,04,26,14,54,12.30
2016,04,26,14,55,12.20
2016,04,26,14,56,12.20
2016,04,26,14,57,12.20
2016,04,26,14,58,12.20
2016,04,26,14,59,12.10
2016,04,26,15,00,12.10
2016,04,26,15,01,12.10
2016,04,26,15,02,12.10
2016,04,26,15,03,12.10
2016,04,26,15,04,12.00
2016,04,26,15,05,12.00
2016,04,26,15,06,11.90
2016,04,26,15,07,11.90
2016,04,26,15,08,12.00
2016,04,26,15,09,12.00
2016,04,26,15,10,12.10
2016,04,26,15,11,12.20
2016,04,26,15,12,12.20
2016,04,26,15,13,12.20
2016,04,26,15,14,12.30
2016,04,26,15,15,12.30
2016,04,26,15,16,12.30
2016,04,26,15,17,12.30
2016,04,26,15,18,12.30
2016,04,26,15,19,12.30
2016,04,26,15,20,12.20
2016,04,26,15,21,12.20
2016,04,26,15,22,12.20
2016,04,26,15,23,12.20
2016,04,26,15,24,12.20
2016,04,26,15,25,12.10
2016,04,26,15,26,12.10
2016,04,26,15,27,12.10
2016,04,26,15,28,12.10
2016,04,26,15,29,12.00
2016,04,26,15,30,12.00
2016,04,26,15,31,11.90
2016,04,26,15,32,11.90
2016,04,26,15,33,11.80
2016,04,26,15,34,11.80
2016,04,26,15,35,11.70
2016,04,26,15,36,11.60
2016,04,26,15,37,11.50
2016,04,26,15,38,11.50
2016,04,26,15,39,11.40
2016,04,26,15,40,11.30
2016,04,26,15,41,11.20
2016,04,26,15,42,11.20
2016,04,26,15,43,11.20
2016,04,26,15,44,11.20
2016,04,26,15,45,11.20
2016,04,26,15,46,11.20
2016,04,26,15,47,11.10
2016,04,26,15,48,11.10
2016,04,26,15,49,11.10
2016,04,26,15,50,11.10
2016,04,26,15,51,11.00
2016,04,26,15,52,11.00
2016,04,26,15,53,10.90
2016,04,26,15,54,10.90
2016,04,26,15,55,10.80
2016,04,26,15,56,10.80
2016,04,26,15,57,10.80
2016,04,26,15,58,10.70
2016,04,26,15,59,10.70
2016,04,26,16,00,10.70
2016,04,26,16,01,10.80
2016,04,26,16,02,10.80
2016,04,26,16,03,10.80
2016,04,26,16,04,10.80
2016,04,26,16,05,10.80
2016,04,26,16,06,10.80
2016,04,26,16,07,10.80
2016,04,26,16,08,10.80
2016,04,26,16,09,10.80
2016,04,26,16,10,10.80
2016,04,26,16,11,10.80
2016,04,26,16,12,10.80
2016,04,26,16,13,10.80
2016,04,26,16,14,10.80
2016,04,26,16,15,10.80
2016,04,26,16,16,10.90
2016,04,26,16,17,10.90
2016,04,26,16,18,10.90
2016,04,26,16,19,10.90
2016,04,26,16,20,10.90
2016,04,26,16,21,10.90
2016,04,26,16,22,10.90
2016,04,26,16,23,10.90
2016,04,26,16,24,10.90
2016,04,26,16,25,10.90
2016,04,26,16,26,11.00
2016,04,26,16,27,11.00
2016,04,26,16,28,11.00
2016,04,26,16,29,11.00
2016,04,26,16,30,11.00
2016,04,26,16,31,11.00
2016,04,26,16,32,11.10
2016,04,26,16,33,11.10
2016,04,26,16,34,11.10
2016,04,26,16,35,11.10
2016,04,26,16,36,11.10
2016,04,26,16,37,11.10
2016,04,26,16,38,11.20
2016,04,26,16,39,11.20
2016,04,26,16,40,11.30
2016,04,26,16,41,11.30
2016,04,26,16,42,11.40
2016,04,26,16,43,11.50
2016,04,26,16,44,11.50
2016,04,26,16,45,11.60
2016,04,26,16,46,11.70
2016,04,26,16,47,11.70
2016,04,26,16,48,11.80
2016,04,26,16,49,11.80
2016,04,26,16,50,11.90
2016,04,26,16,51,11.90
2016,04,26,16,52,11.90
2016,04,26,16,53,12.00
2016,04,26,16,54,12.00
2016,04,26,16,55,12.10
2016,04,26,16,56,12.10
2016,04,26,16,57,12.10
2016,04,26,16,58,12.10
2016,04,26,16,59,12.20
2016,04,26,17,00,12.20
2016,04,26,17,01,12.20
2016,04,26,17,02,12.20
2016,04,26,17,03,12.20
2016,04,26,17,04,12.30
2016,04,26,17,05,12.30
2016,04,26,17,06,12.30
2016,04,26,17,07,12.20
2016,04,26,17,08,12.30
2016,04,26,17,09,12.30
2016,04,26,17,10,12.30
2016,04,26,17,11,12.30
2016,04,26,17,12,12.30
2016,04,26,17,13,12.40
2016,04,26,17,14,12.40
2016,04,26,17,15,12.40
2016,04,26,17,16,12.40
2016,04,26,17,17,12.40
2016,04,26,17,18,12.40
2016,04,26,17,19,12.50
2016,04,26,17,20,12.50
2016,04,26,17,21,12.60
2016,04,26,17,22,12.60
2016,04,26,17,23,12.60
2016,04,26,17,24,12.60
2016,04,26,17,25,12.60
2016,04,26,17,26,12.70
2016,04,26,17,27,12.70
2016,04,26,17,28,12.70
2016,04,26,17,29,12.70
2016,04,26,17,30,12.70
2016,04,26,17,31,12.70
2016,04,26,17,32,12.70
2016,04,26,17,33,12.70
2016,04,26,17,34,12.70
2016,04,26,17,35,12.70
2016,04,26,17,36,12.70
2016,04,26,17,37,12.70
2016,04,26,17,38,12.70
2016,04,26,17,39,12.70
2016,04,26,17,40,12.70
2016,04,26,17,41,12.70
2016,04,26,17,42,12.70
2016,04,26,17,43,12.70